Weather History for Jacksonville, IL

Change the Weather History Date:

Saturday, June 29, 2013

  Actual Average (KSPI) Record (KSPI)
Temperature  
Mean Temperature 70 °F 75 °F  
Max Temperature 76 °F 86 °F 103 °F (1936)
Min Temperature 63 °F 65 °F 50 °F (2004)
Degree Days  
Heating Degree Days 0 0  
Month to date heating degree days 11  
Since 1 June heating degree days 11  
Since 1 July heating degree days 5481  
Cooling Degree Days 4 10  
Month to date cooling degree days 228  
Year to date cooling degree days 332  
Since 1 June cooling degree days 228  
Growing Degree Days 20 (Base 50)    
Moisture  
Dew Point 62 °F    
Average Humidity 79    
Maximum Humidity 94    
Minimum Humidity 60    
Precipitation  
Precipitation 0.02 in 0.14 in 1.45 in (1998)
Month to date precipitation 4.33  
Year to date precipitation 18.34  
Snow  
Snow 0.00 in 0.00 in 0.00 in ()
Month to date snowfall 0.0  
Since 1 June snowfall 0.0  
Since 1 July snowfall 20.9  
Snow Depth -    
Sea Level Pressure  
Sea Level Pressure 29.71 in    
Wind  
Wind Speed 8 mph (NW)    
Max Wind Speed 18 mph    
Max Gust Speed 29 mph    
Visibility 10 miles    
Events Rain , Thunderstorm    
T = Trace of Precipitation, MM = Missing Value Source: NWS Daily Summary

Daily Weather History Graph

Daily Weather History Graph

Search for Another Location

Airport:

Trip Planner

Search our weather history database for the weather conditions in past years. The results will help you decide how hot, cold, wet, or windy it might be!

Date:

Astronomy

Jun. 29, 2013 Rise Set
Actual Time 5:35 AM CDT 8:33 PM CDT
Civil Twilight 5:03 AM CDT 9:05 PM CDT
Nautical Twilight 4:21 AM CDT 9:46 PM CDT
Astronomical Twilight 3:34 AM CDT 10:34 PM CDT
Moon 12:03 AM CDT (6/29) 12:46 PM CDT (6/29)
Length of Visible Light 16h 02m
Length of Day
14h 57m
Waning Gibbous, 55% of the Moon is Illuminated
Jun 29
Waning Gibbous
Jun 29
Last Quarter
Jul 8
New
Jul 15
First Quarter
Jul 22
Full

Hourly Weather History & Observations

Time (CDT) Temp. Dew Point Humidity Pressure Visibility Wind Dir Wind Speed Gust Speed Precip Events Conditions
12:15 AM 71.1 °F 58.5 °F 64% 29.71 in 10.0 mi NW 5.8 mph - N/A   Clear
12:35 AM 70.7 °F 58.5 °F 65% 29.70 in 10.0 mi WNW 4.6 mph - N/A   Clear
12:55 AM 68.7 °F 59.2 °F 72% 29.70 in 10.0 mi WNW 5.8 mph - N/A   Clear
1:15 AM 67.5 °F 59.2 °F 75% 29.70 in 10.0 mi West 6.9 mph - N/A   Clear
1:35 AM 68.2 °F 59.0 °F 72% 29.70 in 10.0 mi WNW 6.9 mph - N/A   Clear
1:55 AM 66.7 °F 59.2 °F 77% 29.70 in 10.0 mi West 5.8 mph - N/A   Clear
2:15 AM 66.6 °F 59.2 °F 77% 29.70 in 10.0 mi West 8.1 mph - N/A   Clear
2:35 AM 66.2 °F 59.0 °F 78% 29.69 in 10.0 mi West 6.9 mph - N/A   Clear
2:55 AM 65.8 °F 59.2 °F 79% 29.69 in 10.0 mi West 6.9 mph - N/A   Clear
3:15 AM 67.1 °F 59.2 °F 76% 29.69 in 10.0 mi West 4.6 mph - N/A   Clear
3:35 AM 67.5 °F 59.2 °F 75% 29.69 in 10.0 mi West 8.1 mph - N/A   Clear
3:55 AM 66.2 °F 59.2 °F 78% 29.69 in 10.0 mi West 8.1 mph - N/A   Clear
4:15 AM 64.6 °F 59.4 °F 83% 29.69 in 10.0 mi West 6.9 mph - N/A   Clear
4:35 AM 65.5 °F 59.4 °F 81% 29.69 in 10.0 mi West 6.9 mph - N/A   Clear
4:55 AM 65.7 °F 59.2 °F 80% 29.69 in 10.0 mi West 6.9 mph - N/A   Clear
5:15 AM 65.7 °F 59.0 °F 79% 29.70 in 10.0 mi West 8.1 mph - N/A   Clear
5:35 AM 65.5 °F 59.0 °F 80% 29.70 in 10.0 mi West 6.9 mph - N/A   Clear
5:55 AM 64.4 °F 59.2 °F 83% 29.70 in 10.0 mi West 4.6 mph - N/A   Clear
6:15 AM 65.5 °F 59.2 °F 80% 29.70 in 10.0 mi West 5.8 mph - N/A   Clear
6:35 AM 66.6 °F 59.7 °F 79% 29.70 in 10.0 mi West 6.9 mph - N/A   Mostly Cloudy
6:55 AM 66.7 °F 60.4 °F 80% 29.70 in 10.0 mi West 5.8 mph - N/A   Mostly Cloudy
7:15 AM 68.7 °F 60.8 °F 76% 29.70 in 10.0 mi West 9.2 mph - N/A   Mostly Cloudy
7:35 AM 69.1 °F 60.8 °F 75% 29.70 in 10.0 mi WNW 6.9 mph - N/A   Scattered Clouds
7:55 AM 69.8 °F 60.6 °F 73% 29.70 in 10.0 mi WNW 12.7 mph - N/A   Scattered Clouds
8:15 AM 70.5 °F 61.3 °F 73% 29.69 in 10.0 mi WNW 10.4 mph 17.3 mph N/A   Scattered Clouds
8:35 AM 71.6 °F 61.5 °F 70% 29.70 in 10.0 mi NW 13.8 mph 19.6 mph N/A   Scattered Clouds
8:55 AM 70.7 °F 61.3 °F 72% 29.70 in 10.0 mi NW 12.7 mph 20.7 mph N/A   Mostly Cloudy
9:15 AM 71.1 °F 61.7 °F 72% 29.70 in 10.0 mi NW 13.8 mph 19.6 mph N/A   Mostly Cloudy
9:35 AM 71.6 °F 61.3 °F 70% 29.69 in 10.0 mi NW 12.7 mph 20.7 mph N/A   Mostly Cloudy
9:55 AM 71.8 °F 61.5 °F 70% 29.69 in 10.0 mi WNW 13.8 mph 19.6 mph N/A   Mostly Cloudy
10:15 AM 71.4 °F 61.7 °F 71% 29.69 in 10.0 mi WNW 10.4 mph 17.3 mph N/A   Overcast
10:35 AM 72.1 °F 62.2 °F 71% 29.70 in 10.0 mi NW 13.8 mph 17.3 mph N/A   Overcast
10:55 AM 73.2 °F 62.2 °F 68% 29.70 in 10.0 mi NW 11.5 mph 17.3 mph N/A   Mostly Cloudy
11:15 AM 71.2 °F 63.3 °F 76% 29.70 in 7.0 mi WNW 10.4 mph 21.9 mph N/A Rain Light Rain
11:35 AM 74.7 °F 63.1 °F 67% 29.69 in 10.0 mi WNW 15.0 mph - N/A   Scattered Clouds
11:55 AM 75.9 °F 62.4 °F 63% 29.68 in 10.0 mi WNW 12.7 mph 18.4 mph N/A   Clear
12:15 PM 76.8 °F 61.9 °F 60% 29.68 in 10.0 mi NW 12.7 mph 19.6 mph N/A   Scattered Clouds
12:35 PM 68.7 °F 61.5 °F 78% 29.70 in 2.0 mi North 16.1 mph 28.8 mph N/A Rain , Thunderstorm Heavy Thunderstorms and Rain
12:55 PM 69.3 °F 63.9 °F 83% 29.69 in 10.0 mi NNW 6.9 mph - 0.01 in Rain Light Rain
1:15 PM 70.7 °F 64.9 °F 82% 29.69 in 10.0 mi NNW 6.9 mph - N/A   Scattered Clouds
1:35 PM 68.5 °F 63.3 °F 83% 29.70 in 4.0 mi NW 18.4 mph - N/A Rain , Thunderstorm Heavy Thunderstorms and Rain
1:55 PM 65.3 °F 61.7 °F 88% 29.71 in 5.0 mi WNW 8.1 mph - N/A Rain , Thunderstorm Thunderstorms and Rain
2:15 PM 66.6 °F 62.6 °F 87% 29.69 in 10.0 mi NW 6.9 mph - N/A   Clear
2:35 PM 68.2 °F 64.2 °F 87% 29.70 in 10.0 mi NNW 6.9 mph - N/A Rain Light Rain
2:55 PM 70.0 °F 65.1 °F 85% 29.70 in 10.0 mi NNW 5.8 mph - 0.01 in   Clear
3:15 PM 71.6 °F 65.8 °F 82% 29.70 in 10.0 mi NNW 8.1 mph - N/A   Scattered Clouds
3:35 PM 72.3 °F 63.3 °F 73% 29.70 in 10.0 mi NNW 13.8 mph - N/A   Scattered Clouds
3:55 PM 72.5 °F 64.2 °F 75% 29.69 in 10.0 mi NNW 11.5 mph - N/A   Clear
4:15 PM 72.1 °F 63.9 °F 75% 29.69 in 10.0 mi NNW 9.2 mph - N/A   Clear
4:35 PM 72.9 °F 64.2 °F 74% 29.69 in 10.0 mi NW 10.4 mph - N/A   Clear
4:55 PM 72.0 °F 61.9 °F 70% 29.69 in 10.0 mi NW 12.7 mph - N/A   Clear
5:15 PM 68.0 °F 62.1 °F 81% 29.70 in 10.0 mi NNW 12.7 mph 21.9 mph N/A Rain Rain
5:35 PM 68.0 °F 62.6 °F 83% 29.70 in 10.0 mi WNW 6.9 mph - N/A   Scattered Clouds
5:55 PM 69.4 °F 62.8 °F 79% 29.70 in 10.0 mi WNW 8.1 mph - N/A   Clear
6:15 PM 70.3 °F 63.5 °F 79% 29.70 in 10.0 mi WNW 9.2 mph - N/A   Scattered Clouds
6:35 PM 70.7 °F 62.4 °F 75% 29.69 in 10.0 mi NNW 13.8 mph - N/A   Clear
6:55 PM 69.3 °F 61.9 °F 77% 29.71 in 10.0 mi North 16.1 mph - N/A   Scattered Clouds
7:15 PM 65.5 °F 62.6 °F 90% 29.73 in 10.0 mi North 8.1 mph - N/A   Mostly Cloudy
7:35 PM 65.8 °F 62.6 °F 89% 29.72 in 10.0 mi North 5.8 mph - N/A   Scattered Clouds
7:55 PM 65.8 °F 63.0 °F 90% 29.73 in 10.0 mi NNW 4.6 mph - N/A   Scattered Clouds
8:15 PM 65.8 °F 63.5 °F 92% 29.74 in 10.0 mi North 4.6 mph - N/A   Mostly Cloudy
8:35 PM 66.0 °F 62.6 °F 89% 29.74 in 10.0 mi North 10.4 mph - N/A   Mostly Cloudy
8:55 PM 66.2 °F 63.0 °F 89% 29.75 in 10.0 mi NE 9.2 mph - N/A   Overcast
9:15 PM 64.4 °F 60.6 °F 88% 29.75 in 10.0 mi NNE 5.8 mph - N/A   Scattered Clouds
9:35 PM 63.7 °F 61.0 °F 91% 29.76 in 10.0 mi North 4.6 mph - N/A   Scattered Clouds
9:55 PM 64.8 °F 62.6 °F 93% 29.77 in 10.0 mi NNW 6.9 mph - N/A   Mostly Cloudy
10:15 PM 64.9 °F 63.1 °F 94% 29.77 in 10.0 mi NNW 6.9 mph - N/A   Mostly Cloudy
10:35 PM 65.3 °F 63.1 °F 93% 29.77 in 10.0 mi North 6.9 mph - N/A   Overcast
10:55 PM 65.3 °F 63.0 °F 92% 29.78 in 10.0 mi NNW 6.9 mph - N/A   Mostly Cloudy
11:15 PM 65.3 °F 62.8 °F 92% 29.78 in 10.0 mi North 8.1 mph - N/A   Scattered Clouds
11:35 PM 65.3 °F 62.8 °F 92% 29.78 in 10.0 mi NNW 8.1 mph - N/A   Mostly Cloudy
11:55 PM 65.5 °F 62.6 °F 90% 29.78 in 10.0 mi North 6.9 mph - N/A   Overcast